EW8824 Weather Reports


time (UTC)temp
C
wind
direction
speed
KPH
gust
KPH
rain 1hr
cm
rain 24hr
cm
rain mn
cm
humidity
%
barometer
mb
20260905190403 35 347 1.6 6.4 0.00 0.84 0.84 62 1014.1
20260905185902 34 153 1.6 9.7 0.00 0.84 0.84 62 1014.1
20260905185403 34 170 6.4 9.7 0.00 0.84 0.84 62 1014.2
20260905184903 34 167 3.2 8.0 0.00 0.84 0.84 65 1014.3
20260905184405 34 188 3.2 8.0 0.00 0.84 0.84 63 1014.3
20260905184231 34 175 3.2 6.4 0.00 0.84 0.84 65 1014.3
20260905183403 34 148 3.2 6.4 0.00 0.84 0.84 65 1014.4
20260905182901 33 351 1.6 9.7 0.00 0.84 0.84 63 1014.6
20260905182403 33 52 6.4 9.7 0.00 0.84 0.84 63 1014.7
20260905181901 33 144 1.6 6.4 0.00 0.84 0.84 63 1014.7
20260905181400 33 101 1.6 6.4 0.00 0.84 0.84 65 1014.8
20260905180902 33 173 4.8 9.7 0.00 0.84 0.84 63 1014.8
20260905180733 33 173 1.6 9.7 0.00 0.84 0.84 64 1014.8
20260905180233 33 157 3.2 8.0 0.00 0.84 0.84 66 1014.7
20260905175402 33 136 1.6 9.7 0.00 0.84 0.84 66 1014.8
20260905174900 33 192 4.8 9.7 0.00 0.84 0.84 64 1014.7
20260905174403 33 238 1.6 4.8 0.00 0.84 0.84 69 1014.8
20260905173905 33 93 1.6 11.3 0.00 0.84 0.84 65 1014.9
20260905173724 32 175 3.2 11.3 0.00 0.84 0.84 68 1014.8
20260905173212 32 109 3.2 9.7 0.00 0.84 0.84 67 1014.9
20260905172341 32 213 4.8 9.7 0.00 0.84 0.84 68 1015.1
20260905172203 32 127 1.6 12.9 0.00 0.84 0.84 69 1015.0
20260905171330 32 141 8.0 12.9 0.00 0.84 0.84 69 1014.8
20260905170830 32 215 3.2 14.5 0.00 0.84 0.84 69 1014.9
20260905170700 32 153 8.0 14.5 0.00 0.84 0.84 68 1015.0
20260905165828 32 128 6.4 12.9 0.00 0.84 0.84 68 1015.0
20260905165329 32 147 6.4 19.3 0.00 0.84 0.84 66 1015.0
20260905164828 32 131 8.0 19.3 0.00 0.84 0.84 68 1015.0
20260905164328 32 195 4.8 12.9 0.00 0.84 0.84 70 1015.0
20260905163829 32 144 8.0 14.5 0.00 0.84 0.84 70 1015.0
20260905163330 31 144 6.4 14.5 0.00 0.84 0.84 71 1015.0
20260905162829 31 157 6.4 12.9 0.00 0.84 0.84 69 1015.1
20260905162331 31 174 6.4 12.9 0.00 0.84 0.84 69 1015.2
20260905161827 31 174 6.4 11.3 0.00 0.84 0.84 74 1015.2
20260905161322 31 155 8.0 14.5 0.00 0.84 0.84 71 1015.3
20260905161156 31 156 8.0 17.7 0.00 0.84 0.84 71 1015.3
20260905160317 31 131 12.9 17.7 0.00 0.84 0.84 70 1015.2
20260905155817 31 161 6.4 17.7 0.00 0.84 0.84 71 1015.3
20260905155309 31 119 4.8 16.1 0.00 0.84 0.84 71 1015.3
20260905154809 30 129 11.3 16.1 0.00 0.84 0.84 71 1015.4
20260905154304 31 147 9.7 14.5 0.00 0.84 0.84 71 1015.6
20260905153802 30 188 8.0 12.9 0.00 0.84 0.84 72 1015.4
20260905153303 30 136 3.2 12.9 0.00 0.84 0.84 75 1015.4
20260905152802 30 102 6.4 17.7 0.00 0.84 0.84 74 1015.2
20260905152305 30 116 3.2 19.3 0.00 0.84 0.84 75 1015.4
20260905151802 30 125 9.7 19.3 0.00 0.84 0.84 73 1015.3
20260905151300 29 130 8.0 17.7 0.00 0.84 0.84 75 1015.4
20260905150800 29 105 6.4 14.5 0.00 0.84 0.84 75 1015.7
20260905150301 29 55 4.8 14.5 0.00 0.84 0.84 74 1015.6
20260905145800 29 140 6.4 14.5 0.00 0.84 0.84 76 1015.6
20260905145638 28 181 3.2 14.5 0.00 0.84 0.84 77 1015.6
20260905145137 28 69 6.4 14.5 0.00 0.84 0.84 76 1015.4
20260905144301 28 144 3.2 12.9 0.00 0.84 0.84 80 1015.7
20260905143801 28 122 3.2 12.9 0.00 0.84 0.84 81 1015.7
20260905143301 27 355 4.8 12.9 0.00 0.84 0.84 81 1015.8
20260905143141 27 99 6.4 12.9 0.00 0.84 0.84 83 1015.8
20260905142301 27 152 1.6 9.7 0.00 0.84 0.84 86 1016.0
20260905141800 26 64 3.2 9.7 0.00 0.84 0.84 88 1015.7
20260905141301 26 78 1.6 9.7 0.00 0.84 0.84 87 1015.6
20260905140802 26 23 1.6 11.3 0.00 0.84 0.84 90 1015.8
20260905140637 26 32 3.2 16.1 0.00 0.84 0.84 89 1015.9
20260905135801 25 49 4.8 16.1 0.00 0.84 0.84 89 1015.8
20260905135300 25 49 4.8 16.1 0.00 0.84 0.84 89 1016.0
20260905134800 25 38 3.2 9.7 0.00 0.84 0.84 90 1015.9
20260905134300 26 331 1.6 3.2 0.00 0.84 0.84 91 1015.4
20260905133804 26 331 0.0 0.0 0.00 0.84 0.84 91 1015.4
20260905133302 26 331 0.0 0.0 0.03 0.84 0.84 92 1015.3
20260905132805 25 331 0.0 1.6 0.03 0.84 0.84 92 1015.4
20260905132301 25 331 0.0 3.2 0.08 0.84 0.84 93 1015.6
20260905131803 25 331 0.0 3.2 0.10 0.84 0.84 94 1015.6
20260905131301 25 331 1.6 3.2 0.13 0.84 0.84 94 1015.6
20260905130801 25 331 0.0 0.0 0.18 0.84 0.84 95 1015.4
20260905130302 24 331 0.0 1.6 0.23 0.84 0.84 95 1015.4
20260905125801 24 331 0.0 3.2 0.30 0.56 0.84 95 1015.4
20260905125305 23 331 1.6 3.2 0.36 0.56 0.84 96 1015.3
20260905124800 23 331 0.0 0.0 0.43 0.56 0.84 95 1015.3
20260905124636 22 331 0.0 0.0 0.51 0.56 0.84 94 1015.2
20260905123806 22 331 0.0 0.0 0.56 0.56 0.84 94 1015.2
20260905123302 22 331 0.0 1.6 0.56 0.56 0.81 93 1015.1
20260905122804 22 331 0.0 1.6 0.58 0.56 0.79 93 1015.1
20260905122301 22 331 0.0 1.6 0.58 0.56 0.76 93 1015.1
20260905121802 22 294 0.0 0.0 0.58 0.56 0.74 93 1015.0
20260905121627 22 294 0.0 0.0 0.58 0.56 0.69 93 1015.0
20260905120803 22 294 0.0 1.6 0.56 0.56 0.64 92 1015.0
20260905120632 22 294 0.0 3.2 0.53 0.56 0.58 92 1015.0
20260905115804 22 78 1.6 4.8 0.48 0.08 0.53 92 1015.0
20260905115636 22 290 3.2 4.8 0.46 0.08 0.46 91 1014.9
20260905114805 22 273 0.0 0.0 0.41 0.08 0.41 91 1015.1
20260905114302 22 273 0.0 3.2 0.33 0.08 0.33 91 1015.1
20260905113801 22 273 1.6 3.2 0.28 0.08 0.28 91 1015.1
20260905113259 22 273 1.6 3.2 0.25 0.08 0.25 91 1015.0
20260905112755 22 273 1.6 9.7 0.23 0.08 0.20 90 1015.0
20260905112619 22 273 3.2 16.1 0.18 0.08 0.18 90 1014.9
20260905111947 22 265 6.4 19.3 0.13 0.08 0.13 89 1015.0
20260905111852 22 215 6.4 19.3 0.15 0.08 0.15 89 1014.8
20260905110730 23 143 9.7 20.9 0.10 0.08 0.10 89 1015.1
20260905110231 23 277 11.3 20.9 0.08 0.08 0.08 89 1015.3
20260905110100 23 333 9.7 40.2 0.05 0.00 0.05 89 1015.2
20260905105228 23 305 25.7 40.2 0.03 0.00 0.00 89 1014.9
20260905104729 23 306 3.2 12.9 0.00 0.00 0.00 94 1014.8
20260905104601 23 291 1.6 4.8 0.00 0.00 0.00 94 1014.7
20260905104053 22 291 3.2 4.8 0.00 0.00 0.00 94 1014.7
20260905103231 22 101 0.0 0.0 0.00 0.00 0.00 94 1014.4
20260905103042 22 101 0.0 0.0 0.00 0.00 0.00 93 1014.2
20260905102229 22 101 0.0 0.0 0.00 0.00 0.00 93 1014.2
20260905101728 22 101 0.0 0.0 0.00 0.00 0.00 93 1014.2
20260905101227 22 101 0.0 0.0 0.00 0.00 0.00 93 1014.2
20260905100723 22 101 0.0 0.0 0.00 0.00 0.00 93 1014.3
20260905100218 22 101 0.0 0.0 0.00 0.00 0.00 93 1014.3
20260905095716 22 101 0.0 0.0 0.00 0.00 0.00 93 1014.3
20260905095210 22 101 0.0 0.0 0.00 0.00 0.00 93 1014.2
20260905094706 22 101 0.0 0.0 0.00 0.00 0.00 93 1014.4
20260905094203 22 101 0.0 0.0 0.00 0.00 0.00 93 1014.3
20260905093704 22 101 0.0 0.0 0.00 0.00 0.00 93 1014.2
20260905093203 22 101 0.0 0.0 0.00 0.00 0.00 93 1014.2
20260905093024 22 101 0.0 0.0 0.00 0.00 0.00 93 1014.1
20260905092201 23 101 0.0 0.0 0.00 0.00 0.00 93 1014.0
20260905091702 23 101 0.0 0.0 0.00 0.00 0.00 93 1014.0
20260905091201 23 101 0.0 0.0 0.00 0.00 0.00 93 1014.0
20260905090704 23 101 0.0 0.0 0.00 0.00 0.00 93 1013.9
20260905090203 23 101 0.0 0.0 0.00 0.00 0.00 93 1014.0
20260905085702 23 101 0.0 0.0 0.00 0.00 0.00 93 1013.9
20260905085203 23 101 0.0 0.0 0.00 0.00 0.00 93 1013.8
20260905084704 23 101 0.0 0.0 0.00 0.00 0.00 93 1013.8
20260905084534 23 101 0.0 0.0 0.00 0.00 0.00 93 1013.8
20260905084029 23 101 0.0 0.0 0.00 0.00 0.00 93 1013.7
20260905083203 23 101 0.0 0.0 0.00 0.00 0.00 92 1013.8
20260905082705 23 101 0.0 0.0 0.00 0.00 0.00 92 1013.8
20260905082201 23 101 0.0 0.0 0.00 0.00 0.00 92 1013.7
20260905081703 23 101 0.0 0.0 0.00 0.00 0.00 93 1013.6
20260905081202 23 101 0.0 0.0 0.00 0.00 0.00 93 1013.7
20260905080705 23 101 0.0 0.0 0.00 0.00 0.00 93 1013.7
20260905080205 23 101 0.0 0.0 0.00 0.00 0.00 93 1013.7
20260905080039 23 101 0.0 0.0 0.00 0.00 0.00 93 1013.8
20260905075204 23 101 0.0 0.0 0.00 0.00 0.00 93 1013.8
20260905074700 23 101 0.0 0.0 0.00 0.00 0.00 93 1013.7
20260905074202 23 101 0.0 0.0 0.00 0.00 0.00 93 1013.7
20260905073701 23 101 0.0 0.0 0.00 0.00 0.00 93 1013.8
20260905073531 23 101 0.0 0.0 0.00 0.00 0.00 93 1013.8
20260905072704 23 101 0.0 0.0 0.00 0.00 0.00 92 1013.8
20260905072533 23 101 0.0 0.0 0.00 0.00 0.00 92 1014.0
20260905071701 23 101 0.0 0.0 0.00 0.00 0.00 93 1014.0
20260905071527 23 101 0.0 0.0 0.00 0.00 0.00 93 1014.1
20260905070704 23 101 0.0 0.0 0.00 0.00 0.00 93 1014.1
20260905070204 23 101 0.0 0.0 0.00 0.00 0.00 92 1014.1
20260905070027 23 101 0.0 0.0 0.00 0.00 0.00 92 1014.2
20260905065201 23 101 0.0 0.0 0.00 0.00 0.00 92 1014.2
20260905064703 23 101 0.0 0.0 0.00 0.00 0.00 92 1014.1
20260905064201 23 101 0.0 0.0 0.00 0.00 0.00 92 1014.2
20260905063748 23 101 0.0 0.0 0.00 0.00 0.00 92 1014.4
20260905063739 23 101 0.0 0.0 0.00 0.00 0.00 92 1014.4
20260905063718 23 101 0.0 0.0 0.00 0.00 0.00 92 1014.2
20260905062200 23 101 0.0 0.0 0.00 0.00 0.00 92 1014.5
20260905061700 23 101 0.0 0.0 0.00 0.00 0.00 92 1014.6
20260905061201 23 101 0.0 0.0 0.00 0.00 0.00 92 1014.6
20260905060703 23 101 0.0 0.0 0.00 0.00 0.00 92 1014.5
20260905060202 23 101 0.0 0.0 0.00 0.00 0.00 92 1014.6
20260905055706 23 101 0.0 0.0 0.00 0.00 0.00 92 1014.5
20260905055204 23 101 0.0 0.0 0.00 0.00 0.00 92 1014.6
20260905054702 23 101 0.0 0.0 0.00 0.00 0.00 92 1014.7
20260905054201 24 101 0.0 0.0 0.00 0.00 0.00 92 1014.6
20260905053704 24 101 0.0 0.0 0.00 0.00 0.00 92 1014.6
20260905053525 23 101 0.0 0.0 0.00 0.00 0.00 92 1014.6
20260905052701 23 101 0.0 0.0 0.00 0.00 0.00 92 1014.7
20260905052521 24 101 0.0 0.0 0.00 0.00 0.00 92 1014.7
20260905051702 24 101 0.0 0.0 0.00 0.00 0.00 92 1014.7
20260905051200 24 101 0.0 0.0 0.00 0.00 0.00 92 1014.7
20260905050704 24 101 0.0 0.0 0.00 0.00 0.00 92 1014.7
20260905050202 24 101 0.0 0.0 0.00 0.00 0.00 92 1014.7
20260905045703 24 101 0.0 0.0 0.00 0.00 0.00 92 1014.6
20260905045202 24 101 0.0 0.0 0.00 0.00 0.00 92 1014.7
20260905044900 24 101 0.0 0.0 0.00 0.00 0.00 92 1014.7
20260905044816 24 101 0.0 0.0 0.00 0.00 0.00 92 1014.7
20260905043701 24 101 0.0 0.0 0.00 0.00 0.00 91 1014.8
20260905043201 24 101 0.0 0.0 0.00 0.00 0.00 91 1014.7
20260905042701 24 101 0.0 0.0 0.00 0.00 0.00 91 1014.7
20260905042203 24 101 0.0 0.0 0.00 0.00 0.00 91 1014.9
20260905041701 24 101 0.0 0.0 0.00 0.00 0.00 91 1014.9
20260905041201 24 101 0.0 0.0 0.00 0.00 0.00 91 1014.9
20260905041030 25 101 0.0 0.0 0.00 0.00 0.00 91 1014.8
20260905040203 25 101 0.0 0.0 0.00 0.00 0.00 91 1014.8
20260905035704 25 101 0.0 0.0 0.00 0.00 0.00 91 1014.8
20260905035203 25 101 0.0 0.0 0.00 0.00 0.00 91 1014.8
20260905034702 25 101 0.0 0.0 0.00 0.00 0.00 91 1014.9
20260905034202 25 101 0.0 0.0 0.00 0.00 0.00 91 1014.8
20260905033847 25 101 0.0 0.0 0.00 0.00 0.00 90 1014.9
20260905033808 25 101 0.0 0.0 0.00 0.00 0.00 91 1014.9
20260905032702 25 101 0.0 0.0 0.00 0.00 0.00 90 1015.0
20260905032203 25 101 0.0 0.0 0.00 0.00 0.00 90 1015.0
20260905032022 25 101 0.0 0.0 0.00 0.00 0.00 90 1015.0
20260905031201 25 101 0.0 0.0 0.00 0.00 0.00 90 1015.0
20260905030702 25 101 0.0 0.0 0.00 0.00 0.00 90 1015.0
20260905030203 25 101 0.0 0.0 0.00 0.00 0.00 90 1015.0
20260905025705 25 101 0.0 0.0 0.00 0.00 0.00 90 1015.1
20260905025532 25 101 0.0 0.0 0.00 0.00 0.00 90 1015.0
20260905024700 25 101 0.0 0.0 0.00 0.00 0.00 89 1015.1
20260905024200 25 101 0.0 0.0 0.00 0.00 0.00 89 1015.1
20260905023702 25 101 0.0 0.0 0.00 0.00 0.00 89 1015.1
20260905023203 25 101 0.0 0.0 0.00 0.00 0.00 90 1015.1
20260905022701 25 101 0.0 0.0 0.00 0.00 0.00 89 1015.1
20260905022201 26 101 0.0 0.0 0.00 0.00 0.00 89 1015.1
20260905021702 26 101 0.0 0.0 0.00 0.00 0.00 89 1015.0
20260905021520 26 101 0.0 0.0 0.00 0.00 0.00 89 1015.1
20260905020702 26 101 0.0 0.0 0.00 0.00 0.00 89 1015.2
20260905020204 26 101 0.0 0.0 0.00 0.00 0.00 89 1015.2
20260905015701 26 101 0.0 0.0 0.00 0.00 0.00 88 1015.2
20260905015523 26 101 0.0 0.0 0.00 0.00 0.00 88 1015.2
20260905015029 26 101 0.0 0.0 0.00 0.00 0.00 88 1015.1
20260905014526 26 101 0.0 0.0 0.00 0.00 0.00 88 1014.9
20260905013720 26 101 0.0 0.0 0.00 0.00 0.00 86 1014.9
20260905013716 26 101 0.0 0.0 0.00 0.00 0.00 86 1014.9
20260905013705 26 101 0.0 0.0 0.00 0.00 0.00 87 1015.0
20260905012201 27 101 0.0 0.0 0.00 0.00 0.00 86 1014.9
20260905011705 27 101 0.0 0.0 0.00 0.00 0.00 85 1014.8
20260905011202 27 101 0.0 0.0 0.00 0.00 0.00 86 1014.9
20260905011035 27 101 0.0 0.0 0.00 0.00 0.00 85 1014.8
20260905010151 27 101 0.0 0.0 0.00 0.00 0.00 85 1014.7
20260905005644 28 101 0.0 0.0 0.00 0.00 0.00 85 1014.7
20260905005140 28 101 0.0 0.0 0.00 0.00 0.00 84 1014.5
20260905004959 28 101 0.0 0.0 0.00 0.00 0.00 83 1014.6
20260905004131 28 101 0.0 0.0 0.00 0.00 0.00 83 1014.6
20260905003629 28 101 0.0 0.0 0.00 0.00 0.00 83 1014.6
20260905003325 29 101 0.0 0.0 0.00 0.00 0.00 81 1014.6
20260905003234 29 101 0.0 0.0 0.00 0.00 0.00 82 1014.6
20260905002129 29 101 0.0 0.0 0.00 0.00 0.00 79 1014.6
20260905001631 30 101 0.0 0.0 0.00 0.00 0.00 79 1014.6
20260905001129 30 101 0.0 0.0 0.00 0.00 0.00 78 1014.5
20260905000631 30 101 0.0 0.0 0.00 0.00 0.00 77 1014.4
20260905000129 31 101 0.0 0.0 0.00 0.00 0.00 75 1014.4
20260904235635 31 101 0.0 0.0 0.00 0.00 0.00 74 1014.4
20260904235131 31 101 0.0 0.0 0.00 0.00 0.00 74 1014.4
20260904234631 32 101 0.0 0.0 0.00 0.00 0.00 74 1014.4
20260904234127 32 101 0.0 0.0 0.00 0.00 0.00 74 1014.4
20260904233623 32 101 0.0 0.0 0.00 0.00 0.00 72 1014.5
20260904233120 33 101 0.0 0.0 0.00 0.00 0.00 72 1014.4
20260904232618 33 101 0.0 0.0 0.00 0.00 0.00 73 1014.4
20260904232114 33 101 0.0 0.0 0.00 0.00 0.00 73 1014.4
20260904231610 33 101 0.0 0.0 0.00 0.00 0.00 72 1014.4
20260904231102 33 101 0.0 0.0 0.00 0.00 0.00 72 1014.4
20260904230605 33 101 0.0 0.0 0.00 0.00 0.00 72 1014.4
20260904230105 33 101 0.0 0.0 0.00 0.00 0.00 71 1014.4
20260904225604 33 101 0.0 0.0 0.00 0.00 0.00 71 1014.4
20260904225257 33 101 0.0 0.0 0.00 0.00 0.00 71 1014.6
20260904225213 34 101 0.0 0.0 0.00 0.00 0.00 70 1014.5
20260904224307 33 101 0.0 0.0 0.00 0.00 0.00 71 1014.8
20260904224217 33 101 0.0 0.0 0.00 0.00 0.00 71 1014.7
20260904223104 33 101 0.0 0.0 0.00 0.00 0.00 69 1014.8
20260904222604 34 101 0.0 0.0 0.00 0.00 0.00 70 1014.6
20260904222103 35 101 0.0 0.0 0.00 0.00 0.00 69 1014.7
20260904221602 35 101 0.0 0.0 0.00 0.00 0.00 67 1014.8
20260904221103 35 101 0.0 0.0 0.00 0.00 0.00 64 1014.8
20260904220926 36 101 0.0 0.0 0.00 0.00 0.00 64 1014.8
20260904220105 36 101 0.0 0.0 0.00 0.00 0.00 63 1014.8
20260904215602 36 101 0.0 0.0 0.00 0.00 0.00 64 1014.9
20260904215101 36 101 0.0 0.0 0.00 0.00 0.00 61 1014.9
20260904214602 36 101 0.0 0.0 0.00 0.00 0.00 59 1014.9
20260904214102 37 101 0.0 0.0 0.00 0.00 0.00 60 1014.9
20260904213557 37 101 0.0 0.0 0.00 0.00 0.00 61 1014.8
20260904213055 37 101 0.0 3.2 0.00 0.00 0.00 51 1015.0
20260904212919 36 101 0.0 3.2 0.00 0.00 0.00 57 1015.0
20260904212042 36 101 1.6 3.2 0.00 0.00 0.00 58 1015.0
20260904211540 37 101 1.6 3.2 0.00 0.00 0.00 53 1015.0
20260904211033 36 101 0.0 4.8 0.00 0.00 0.00 52 1015.1
20260904210526 36 101 1.6 4.8 0.00 0.00 0.00 53 1015.1
20260904210018 37 101 1.6 4.8 0.00 0.00 0.00 53 1015.1
20260904205516 37 101 1.6 4.8 0.00 0.00 0.00 51 1015.1
20260904205005 37 101 1.6 4.8 0.00 0.00 0.00 53 1015.2
20260904204502 37 0 0.0 4.8 0.00 0.00 0.00 49 1015.3
20260904204004 37 0 3.2 6.4 0.00 0.00 0.00 57 1015.4
20260904203503 37 317 3.2 6.4 0.00 0.00 0.00 53 1015.4
20260904203003 37 275 1.6 8.0 0.00 0.00 0.00 56 1015.4
20260904202503 36 34 4.8 8.0 0.00 0.00 0.00 55 1015.6
20260904202002 36 119 1.6 4.8 0.00 0.00 0.00 53 1015.7
20260904201503 36 109 1.6 4.8 0.00 0.00 0.00 52 1015.8
20260904201005 37 287 1.6 4.8 0.00 0.00 0.00 56 1015.8
20260904200502 36 73 1.6 4.8 0.00 0.00 0.00 56 1015.9
20260904200002 36 347 1.6 4.8 0.00 0.00 0.00 57 1015.9
20260904195503 36 61 1.6 8.0 0.00 0.00 0.00 54 1016.0
20260904195003 36 74 3.2 8.0 0.00 0.00 0.00 55 1016.1
20260904194833 35 22 1.6 8.0 0.00 0.00 0.00 63 1016.2
20260904194000 35 96 3.2 8.0 0.00 0.00 0.00 60 1016.4
20260904193501 35 61 1.6 8.0 0.00 0.00 0.00 59 1016.6
20260904193001 36 21 3.2 8.0 0.00 0.00 0.00 61 1016.7
20260904192504 36 25 3.2 8.0 0.00 0.00 0.00 54 1016.9
20260904192000 36 5 3.2 14.5 0.00 0.00 0.00 54 1016.9
20260904191837 36 296 6.4 14.5 0.00 0.00 0.00 53 1016.9